This is the latest recevied weather packets stored in our database for station/object KD8DNS. If no packets are shown the sender has not sent any weather packets the latest 10 day(s).
| Time | Temp. | Humidity | Pressure | Rain* | Wind** | Luminosity | Snow |
|---|---|---|---|---|---|---|---|
| 1787840301 | 25.56° C | 78% | 1018 hPa | 0 mm | - | 353 W/m² | - |
| 1787840000 | 25.56° C | 77% | 1017.8 hPa | 0 mm | - | 328 W/m² | - |
| 1787839695 | 25.56° C | 80% | 1017.9 hPa | 0 mm | - | 379 W/m² | - |
| 1787839390 | 24.44° C | 82% | 1018.1 hPa | 0 mm | - | 268 W/m² | - |
| 1787839090 | 23.33° C | 84% | 1017.8 hPa | 0 mm | - | 281 W/m² | - |
| 1787838788 | 23.33° C | 84% | 1017.8 hPa | 0 mm | - | 176 W/m² | - |
| 1787838483 | 23.33° C | 85% | 1017.9 hPa | 0 mm | - | 298 W/m² | - |
| 1787838182 | 23.33° C | 84% | 1017.8 hPa | 0 mm | - | 111 W/m² | - |
| 1787837876 | 23.33° C | 85% | 1018 hPa | 0 mm | - | 220 W/m² | - |
| 1787837576 | 22.78° C | 85% | 1018.1 hPa | 0 mm | - | 308 W/m² | - |
| 1787837275 | 22.78° C | 85% | 1017.9 hPa | 0 mm | - | 149 W/m² | - |
| 1787836970 | 22.78° C | 86% | 1018 hPa | 0 mm | - | 276 W/m² | - |
| 1787836665 | 22.22° C | 86% | 1018.1 hPa | 0 mm | - | 252 W/m² | - |
| 1787836365 | 22.22° C | 87% | 1018.1 hPa | 0 mm | - | 228 W/m² | - |
| 1787836060 | 21.67° C | 89% | 1017.8 hPa | 0 mm | - | 216 W/m² | - |
| 1787835756 | 21.11° C | 90% | 1017.7 hPa | 0 mm | - | 195 W/m² | - |
| 1787835450 | 21.11° C | 90% | 1018.2 hPa | 0 mm | - | 172 W/m² | - |
| 1787835146 | 20.56° C | 91% | 1017.8 hPa | 0 mm | - | 161 W/m² | - |
| 1787834845 | 20.56° C | 92% | 1017.8 hPa | 0 mm | - | 149 W/m² | - |
| 1787834540 | 20° C | 92% | 1017.9 hPa | 0 mm | - | 138 W/m² | - |
| 1787834235 | 20° C | 94% | 1017.8 hPa | 0 mm | - | 127 W/m² | - |
| 1787833931 | 19.44° C | 95% | 1017.4 hPa | 0 mm | - | 112 W/m² | - |
| 1787833626 | 19.44° C | 96% | 1017.4 hPa | 0 mm | - | 83 W/m² | - |
| 1787833322 | 18.89° C | 97% | 1017.6 hPa | 0 mm | - | 68 W/m² | - |
| 1787833017 | 18.89° C | 97% | 1017.6 hPa | 0 mm | - | 39 W/m² | - |
* Rain latest hour (hover to see other rain measurements)
** Current wind speed in m/s (hover to see current wind gust speed)